BAW9277 EGLL-EGKK

Flight info

Callsign BAW9277
Flight time 0h 18m
Altitude 8000
Route MID/N0281F090 DCT WILLO/N0276F080
Aircraft A320

Departure

Time 2026-05-06 19:48
Airport London Heathrow Airport (EGLL)

Arrival

Time 2026-05-06 20:06
Airport London Gatwick Airport (EGKK)
Time Latitude Longitude Altitude Speed Heading
2026-05-06 19:17 51.46938 -0.47184 77 ft 0 kts 90°
2026-05-06 19:40 51.46938 -0.47221 88 ft 4 kts 90°
2026-05-06 19:40 51.46938 -0.47264 91 ft 4 kts 91°
2026-05-06 19:41 51.46939 -0.47307 90 ft 4 kts 97°
2026-05-06 19:41 51.46944 -0.47339 90 ft 2 kts 136°
2026-05-06 19:41 51.46953 -0.47350 92 ft 2 kts 168°
2026-05-06 19:41 51.46964 -0.47353 91 ft 2 kts 178°
2026-05-06 19:42 51.46972 -0.47353 90 ft 0 kts 180°
2026-05-06 19:44 51.46942 -0.47353 89 ft 8 kts 180°
2026-05-06 19:44 51.46879 -0.47353 87 ft 10 kts 180°
2026-05-06 19:44 51.46800 -0.47352 87 ft 13 kts 179°
2026-05-06 19:44 51.46704 -0.47351 87 ft 14 kts 180°
2026-05-06 19:45 51.46655 -0.47471 87 ft 15 kts 269°
2026-05-06 19:45 51.46657 -0.47656 90 ft 18 kts 269°
2026-05-06 19:45 51.46655 -0.47855 87 ft 16 kts 269°
2026-05-06 19:45 51.46652 -0.48042 87 ft 13 kts 270°
2026-05-06 19:46 51.46651 -0.48177 87 ft 10 kts 264°
2026-05-06 19:46 51.46626 -0.48212 88 ft 1 kts 171°
2026-05-06 19:46 51.46601 -0.48210 87 ft 8 kts 179°
2026-05-06 19:46 51.46541 -0.48211 88 ft 9 kts 180°
2026-05-06 19:47 51.46482 -0.48179 89 ft 10 kts 107°
2026-05-06 19:47 51.46481 -0.48145 89 ft 6 kts 92°
2026-05-06 19:47 51.46479 -0.47813 87 ft 64 kts 89°
2026-05-06 19:47 51.46483 -0.46773 92 ft 122 kts 90°
2026-05-06 19:48 51.46491 -0.45156 154 ft 161 kts 89°
2026-05-06 19:48 51.46472 -0.43365 842 ft 159 kts 86°
2026-05-06 19:48 51.46404 -0.41555 1376 ft 175 kts 104°
2026-05-06 19:48 51.45695 -0.39851 1715 ft 199 kts 133°
2026-05-06 19:49 51.44589 -0.38288 2074 ft 225 kts 144°
2026-05-06 19:49 51.43092 -0.37066 2538 ft 251 kts 156°
2026-05-06 19:49 51.41406 -0.36040 3253 ft 265 kts 165°
2026-05-06 19:49 51.39561 -0.35978 4166 ft 270 kts 194°
2026-05-06 19:50 51.37837 -0.37134 5192 ft 270 kts 207°
2026-05-06 19:50 51.36142 -0.38494 5775 ft 273 kts 207°
2026-05-06 19:50 51.34433 -0.39853 6579 ft 275 kts 207°
2026-05-06 19:50 51.32714 -0.41235 7468 ft 279 kts 211°
2026-05-06 19:51 51.31240 -0.43248 7876 ft 280 kts 234°
2026-05-06 19:51 51.30202 -0.45677 8961 ft 255 kts 239°
2026-05-06 19:51 51.29197 -0.48182 9164 ft 278 kts 239°
2026-05-06 19:51 51.28132 -0.50794 9167 ft 283 kts 234°
2026-05-06 19:52 51.26637 -0.52840 9170 ft 288 kts 208°
2026-05-06 19:52 51.24704 -0.53644 9170 ft 291 kts 185°
2026-05-06 19:52 51.22678 -0.53748 9171 ft 291 kts 181°
2026-05-06 19:52 51.20659 -0.53770 8939 ft 288 kts 181°
2026-05-06 19:53 51.18664 -0.53784 8302 ft 286 kts 181°
2026-05-06 19:53 51.16686 -0.53799 8029 ft 283 kts 181°
2026-05-06 19:53 51.14708 -0.53815 8014 ft 285 kts 181°
2026-05-06 19:53 51.12723 -0.53830 8018 ft 286 kts 181°
2026-05-06 19:54 51.10737 -0.53845 8006 ft 285 kts 181°
2026-05-06 19:54 51.08752 -0.53860 7996 ft 285 kts 181°
2026-05-06 19:54 51.06782 -0.53517 8003 ft 286 kts 161°
2026-05-06 19:54 51.05094 -0.51896 8004 ft 286 kts 134°
2026-05-06 19:55 51.03808 -0.49479 8002 ft 286 kts 127°
2026-05-06 19:55 51.02605 -0.46960 8002 ft 287 kts 126°
2026-05-06 19:55 51.01409 -0.44425 7999 ft 286 kts 126°
2026-05-06 19:55 51.00216 -0.41891 7994 ft 286 kts 126°
2026-05-06 19:56 50.99027 -0.39359 8005 ft 286 kts 126°
2026-05-06 19:56 50.97837 -0.36827 8009 ft 286 kts 126°
2026-05-06 19:56 50.96633 -0.34264 7998 ft 286 kts 126°
2026-05-06 19:56 50.95450 -0.31744 7786 ft 284 kts 126°
2026-05-06 19:57 50.94288 -0.29227 7449 ft 282 kts 122°
2026-05-06 19:57 50.93624 -0.26360 7140 ft 277 kts 94°
2026-05-06 19:57 50.93681 -0.24355 6924 ft 274 kts 76°
2026-05-06 19:57 50.94492 -0.21685 6601 ft 269 kts 47°
2026-05-06 19:58 50.95982 -0.19971 6266 ft 265 kts 19°
2026-05-06 19:58 50.97781 -0.19610 5905 ft 262 kts 351°
2026-05-06 19:58 50.99450 -0.20676 5568 ft 260 kts 322°
2026-05-06 19:58 51.00564 -0.22887 5226 ft 259 kts 293°
2026-05-06 19:59 51.00910 -0.25675 4872 ft 260 kts 274°
2026-05-06 19:59 51.00958 -0.28530 4646 ft 255 kts 271°
2026-05-06 19:59 51.00968 -0.31293 4512 ft 246 kts 271°
2026-05-06 19:59 51.00969 -0.33965 4375 ft 238 kts 271°
2026-05-06 20:00 51.00963 -0.36546 4207 ft 231 kts 271°
2026-05-06 20:00 51.00976 -0.39076 3892 ft 228 kts 273°
2026-05-06 20:00 51.01121 -0.41572 3555 ft 226 kts 290°
2026-05-06 20:00 51.01972 -0.43532 3417 ft 212 kts 325°
2026-05-06 20:01 51.03246 -0.44566 3307 ft 201 kts 339°
2026-05-06 20:01 51.04527 -0.45336 3167 ft 193 kts 341°
2026-05-06 20:01 51.05770 -0.46050 3104 ft 184 kts 341°
2026-05-06 20:01 51.06964 -0.46729 3011 ft 181 kts 341°
2026-05-06 20:02 51.08169 -0.46933 2980 ft 179 kts 15°
2026-05-06 20:02 51.09257 -0.45938 3015 ft 180 kts 38°
2026-05-06 20:02 51.10206 -0.44639 2967 ft 180 kts 40°
2026-05-06 20:02 51.11113 -0.43263 2849 ft 181 kts 49°
2026-05-06 20:03 51.11684 -0.41487 2740 ft 182 kts 74°
2026-05-06 20:03 51.11955 -0.39541 2619 ft 176 kts 75°
2026-05-06 20:03 51.12219 -0.37669 2423 ft 171 kts 75°
2026-05-06 20:03 51.12475 -0.35843 2203 ft 167 kts 75°
2026-05-06 20:04 51.12726 -0.34056 1969 ft 164 kts 74°
2026-05-06 20:04 51.12971 -0.32301 1769 ft 161 kts 75°
2026-05-06 20:04 51.13210 -0.30583 1519 ft 154 kts 75°
2026-05-06 20:04 51.13433 -0.28978 1307 ft 144 kts 76°
2026-05-06 20:05 51.13647 -0.27444 1101 ft 141 kts 76°
2026-05-06 20:05 51.13858 -0.25931 909 ft 139 kts 77°
2026-05-06 20:05 51.14066 -0.24435 730 ft 138 kts 78°
2026-05-06 20:05 51.14270 -0.22935 558 ft 139 kts 78°
2026-05-06 20:06 51.14477 -0.21438 363 ft 138 kts 78°
2026-05-06 20:06 51.14687 -0.19953 225 ft 137 kts 77°
2026-05-06 20:06 51.14863 -0.18660 210 ft 97 kts 77°
2026-05-06 20:06 51.14968 -0.17907 214 ft 31 kts 77°
2026-05-06 20:07 51.15034 -0.17741 221 ft 13 kts
2026-05-06 20:07 51.15083 -0.17751 215 ft 0 kts 352°
2026-05-06 20:09 51.15084 -0.17751 213 ft 1 kts 352°
2026-05-06 20:10 51.15121 -0.17759 213 ft 9 kts 352°
2026-05-06 20:10 51.15182 -0.17686 220 ft 15 kts 74°
2026-05-06 20:10 51.15208 -0.17477 211 ft 23 kts 79°
2026-05-06 20:10 51.15241 -0.17215 214 ft 20 kts 73°
2026-05-06 20:11 51.15258 -0.17131 211 ft 0 kts 63°
2026-05-06 20:11 51.15267 -0.17093 217 ft 7 kts 74°
2026-05-06 20:11 51.15280 -0.16995 213 ft 11 kts 79°
2026-05-06 20:12 51.15295 -0.16867 211 ft 13 kts 79°
2026-05-06 20:12 51.15359 -0.16824 213 ft 12 kts 318°
2026-05-06 20:12 51.15356 -0.16953 216 ft 12 kts 258°
2026-05-06 20:12 51.15337 -0.17093 214 ft 13 kts 257°
2026-05-06 20:13 51.15338 -0.17228 218 ft 12 kts 311°
2026-05-06 20:13 51.15423 -0.17269 218 ft 14 kts 347°
2026-05-06 20:13 51.15520 -0.17302 211 ft 15 kts 347°
2026-05-06 20:13 51.15607 -0.17273 223 ft 14 kts 59°
2026-05-06 20:14 51.15630 -0.17128 213 ft 14 kts 77°
2026-05-06 20:14 51.15650 -0.16984 218 ft 9 kts 78°
2026-05-06 20:14 51.15690 -0.16912 213 ft 8 kts 30°
2026-05-06 20:14 51.15737 -0.16868 219 ft 3 kts 31°
2026-05-06 20:15 51.15750 -0.16855 211 ft 0 kts 31°